EW4415 Weather Reports


Display with metric or nautical units.
time (UTC)temp
F
wind
direction
speed
MPH
gust
MPH
rain 1hr
in
rain 24hr
in
rain mn
in
humidity
%
barometer
mb
20260510011553 29 96 0.0 0.0 0.00 0.00 0.00 1 1022.4
20260510010100 29 96 0.0 0.0 0.00 0.00 0.00 3 1022.5
20260510004546 29 96 0.0 0.0 0.00 0.00 0.00 10 1022.6
20260510003040 29 96 0.0 0.0 0.00 0.00 0.00 16 1022.8
20260510001535 29 96 0.0 0.0 0.00 0.00 0.00 23 1022.9
20260510000031 29 96 0.0 0.0 0.00 0.00 0.00 27 1023.1
20260509234527 29 96 0.0 0.0 0.00 0.00 0.00 31 1023.2
20260509233024 30 96 0.0 0.0 0.00 0.00 0.00 36 1023.3
20260509231529 30 96 0.0 0.0 0.00 0.00 0.00 42 1023.4
20260509230019 31 96 0.0 0.0 0.00 0.00 0.00 47 1023.6
20260509224514 32 96 0.0 0.0 0.00 0.00 0.00 50 1023.8
20260509223015 32 96 0.0 0.0 0.00 0.00 0.00 50 1023.9
20260509221525 33 96 0.0 0.0 0.00 0.00 0.00 54 1023.9
20260509220007 34 96 0.0 0.0 0.00 0.00 0.00 59 1023.8
20260509214504 35 96 0.0 0.0 0.00 0.00 0.00 62 1023.9
20260509213103 36 96 0.0 0.0 0.00 0.00 0.00 63 1024.0
20260509211556 37 96 0.0 0.0 0.00 0.00 0.00 63 1024.2
20260509210059 38 96 0.0 0.0 0.00 0.00 0.00 63 1024.1
20260509204549 38 96 0.0 0.0 0.00 0.00 0.00 62 1024.2
20260509203050 39 96 0.0 0.0 0.00 0.00 0.00 61 1024.1
20260509201541 40 96 0.0 0.0 0.00 0.00 0.00 61 1024.3
20260509200042 40 96 0.0 0.0 0.00 0.00 0.00 60 1024.4
20260509194531 41 96 0.0 0.0 0.00 0.00 0.00 60 1024.6
20260509193027 42 96 0.0 0.0 0.00 0.00 0.00 59 1024.7
20260509191524 43 96 0.0 0.0 0.00 0.00 0.00 57 1024.9
20260509190029 44 96 0.0 0.0 0.00 0.00 0.00 56 1024.9
20260509184526 46 96 0.0 0.0 0.00 0.00 0.00 53 1025.0
20260509183012 47 96 0.0 0.0 0.00 0.00 0.00 52 1025.1
20260509181507 48 96 0.0 0.0 0.00 0.00 0.00 48 1025.1
20260509180002 49 96 0.0 0.0 0.00 0.00 0.00 45 1025.2
20260509174558 50 96 0.0 0.0 0.00 0.00 0.00 43 1025.1
20260509173101 51 96 0.0 0.0 0.00 0.00 0.00 40 1025.2
20260509171605 51 31 0.0 0.0 0.00 0.00 0.00 42 1025.3
20260509170045 52 128 0.0 1.0 0.00 0.00 0.00 41 1025.3
20260509164548 53 179 0.0 1.0 0.00 0.00 0.00 40 1025.3
20260509163046 54 148 0.0 0.0 0.00 0.00 0.00 41 1025.5
20260509161531 54 180 0.0 0.0 0.00 0.00 0.00 38 1025.5
20260509160029 55 223 0.0 2.0 0.00 0.00 0.00 37 1025.5
20260509154522 56 143 0.0 0.0 0.00 0.00 0.00 36 1025.7
20260509153018 56 87 0.0 0.0 0.00 0.00 0.00 36 1025.8
20260509151514 56 128 0.0 1.0 0.00 0.00 0.00 35 1026.0
20260509150010 57 159 0.0 2.0 0.00 0.00 0.00 34 1026.2
20260509144506 57 130 0.0 1.0 0.00 0.00 0.00 36 1026.3
20260509143100 57 143 0.0 1.0 0.00 0.00 0.00 35 1026.4
20260509141557 57 67 0.0 2.0 0.00 0.00 0.00 33 1026.6
20260509140052 57 65 0.0 5.0 0.00 0.00 0.00 33 1026.7
20260509134556 57 355 0.0 0.0 0.00 0.00 0.00 33 1026.8
20260509133044 58 140 0.0 1.0 0.00 0.00 0.00 31 1027.0
20260509131557 57 5 1.0 12.0 0.00 0.00 0.00 33 1027.1
20260509130048 57 147 0.0 6.0 0.00 0.00 0.00 31 1027.2
20260509124539 58 142 0.0 7.0 0.00 0.00 0.00 33 1027.5
20260509123029 58 130 0.0 1.0 0.00 0.00 0.00 31 1027.6
20260509121523 58 61 0.0 1.0 0.00 0.00 0.00 32 1027.9
20260509120017 58 154 0.0 1.0 0.00 0.00 0.00 30 1028.1
20260509114513 57 140 0.0 2.0 0.00 0.00 0.00 32 1028.2
20260509113008 57 80 0.0 3.0 0.00 0.00 0.00 33 1028.3
20260509111504 57 163 0.0 2.0 0.00 0.00 0.00 32 1028.4
20260509110001 57 159 0.0 1.0 0.00 0.00 0.00 33 1028.6
20260509104610 56 55 0.0 3.0 0.00 0.00 0.00 33 1028.7
20260509103054 56 171 0.0 6.0 0.00 0.00 0.00 32 1028.8
20260509101552 56 144 0.0 5.0 0.00 0.00 0.00 34 1028.9
20260509100046 57 152 0.0 7.0 0.00 0.00 0.00 34 1029.0
20260509094541 57 146 0.0 2.0 0.00 0.00 0.00 34 1029.1
20260509093037 57 149 0.0 3.0 0.00 0.00 0.00 34 1029.2
20260509091533 57 71 0.0 1.0 0.00 0.00 0.00 33 1029.3
20260509090030 56 119 0.0 2.0 0.00 0.00 0.00 35 1029.3
20260509084523 56 250 0.0 0.0 0.00 0.00 0.00 36 1029.3
20260509083019 56 118 0.0 0.0 0.00 0.00 0.00 37 1029.5
20260509081524 56 65 0.0 0.0 0.00 0.00 0.00 36 1029.5
20260509080010 56 49 0.0 1.0 0.00 0.00 0.00 38 1029.6
20260509074505 55 73 0.0 0.0 0.00 0.00 0.00 40 1029.6
20260509073003 55 38 0.0 0.0 0.00 0.00 0.00 41 1029.6
20260509071605 54 59 0.0 0.0 0.00 0.00 0.00 41 1029.7
20260509064549 53 152 0.0 2.0 0.00 0.00 0.00 42 1029.7
20260509063043 52 186 0.0 1.0 0.00 0.00 0.00 46 1029.8
20260509061539 51 140 0.0 1.0 0.00 0.00 0.00 51 1029.7
20260509060036 48 132 0.0 1.0 0.00 0.00 0.00 56 1029.7
20260509054540 45 261 0.0 0.0 0.00 0.00 0.00 55 1029.8
20260509053100 42 271 0.0 0.0 0.00 0.00 0.00 27 1029.7
20260509051525 40 271 0.0 0.0 0.00 0.00 0.00 1 1029.8
20260509050034 37 271 0.0 0.0 0.00 0.00 0.00 1 1029.7
20260509044517 35 271 0.0 0.0 0.00 0.00 0.00 1 1029.7
20260509043007 33 271 0.0 0.0 0.00 0.00 0.00 1 1029.7
20260509041505 32 271 0.0 0.0 0.00 0.00 0.00 1 1029.8
20260509040115 31 271 0.0 0.0 0.00 0.00 0.00 1 1029.8
20260509034622 29 271 0.0 0.0 0.00 0.00 0.00 1 1029.7
20260509033050 28 271 0.0 0.0 0.00 0.00 0.00 1 1029.6
20260509031546 28 271 0.0 0.0 0.00 0.00 0.00 1 1029.5
20260509030042 27 271 0.0 0.0 0.00 0.00 0.00 1 1029.5
20260509024542 27 271 0.0 0.0 0.00 0.00 0.00 1 1029.4
20260509023043 27 271 0.0 0.0 0.00 0.00 0.00 1 1029.4
20260509021529 27 271 0.0 0.0 0.00 0.00 0.00 1 1029.3
20260509020024 27 271 0.0 0.0 0.00 0.00 0.00 1 1029.2
20260509014520 27 271 0.0 0.0 0.00 0.00 0.00 1 1029.2